Location: Castelbiague
(43.0361°N, 0.9246°E)
Time: 09:39:36
(UTC+00:00)

Cosmos 1758 - Pass Details

Date: 17 June 2021
Orbit: 539 x 561 km, 82.5° (Epoch: 03 August)

Event Time Altitude Azimuth Distance (km) Brightness Sun altitude
Rises 20:35:02 0° 354° (N) 2,714 7.7 -8.9°
Reaches altitude 10° 20:37:13 10° 356° (N) 1,814 6.7 -9.2°
Maximum altitude 20:41:12 70° 80° (E) 579 3.3 -9.7°
Enters shadow 20:45:00 11° 165° (SSE) 1,742 5.3 -10.2°
